AirNav   Pilot Hours Calculator
 
 1347 users online  

KVLL Oakland/Troy Airport
Troy, Michigan, USA

GOING TO TROY?


FAA INFORMATION EFFECTIVE 31 JANUARY 2019

Location

FAA Identifier: VLL
Lat/Long: 42-32-34.6000N / 083-10-40.4000W
42-32.576667N / 083-10.673333W
42.5429444 / -83.1778889
(estimated)
Elevation: 727.2 ft. / 221.7 m (surveyed)
Variation: 06W (1995)
From city: 2 miles E of TROY, MI
Time zone: UTC -5 (UTC -4 during Daylight Saving Time)
Zip code: 48084

Airport Operations

Airport use: Open to the public
Control tower: no
ARTCC: CLEVELAND CENTER
FSS: LANSING FLIGHT SERVICE STATION
NOTAMs facility: VLL (NOTAM-D service available)
Attendance: 0800-1800
Pattern altitude: 1727.2 ft. MSL
Wind indicator: lighted
Segmented circle: no
Lights: ACTVT MIRL RY 09/27 & PAPI RYS 09 & 27 - CTAF.
Beacon: white-green (lighted land airport)
Operates sunset to sunrise.
Landing fee: yes

Airport Communications

CTAF/UNICOM: 123.05
WX AWOS-3: 119.475 (248-288-4649)
DETROIT APPROACH: 134.3
DETROIT DEPARTURE: 134.3
BARII DP: 134.3
CCOBB DP: 134.3
CLVIN DP: 134.3
HHOWE DP: 134.3
KAYLN DP: 134.3
LIDDS DP: 134.3
MIGGY DP: 134.3
PAVYL DP: 134.3
SNDRS DP: 134.3
TRMML DP: 134.3
ZETTR DP: 134.3
WX ASOS at DET (11 nm SE): PHONE 313-371-9696
WX ASOS at PTK (13 nm NW): 125.025 (248-886-8551)

Nearby radio navigation aids

VOR radial/distance  VOR name  Freq  Var
SVMr069/20.1SALEM VORTAC114.3003W
DXOr029/21.5DETROIT VOR/DME113.4006W
YQGr325/23.4WINDSOR VOR/DME113.8006W
CRLr026/32.2CARLETON VOR/DME115.7003W
FNTr141/35.7FLINT VORTAC116.9006W

 
NDB name  Hdg/Dist  Freq  Var  ID
GROSSE ILE005/26.541907WRYS .-. -.-- ...

Airport Services

Fuel available: 100LL JET-A
Parking: tiedowns
Airframe service: NONE
Powerplant service: NONE

Runway Information

Runway 9/27

Dimensions: 3549 x 60 ft. / 1082 x 18 m
Surface: asphalt, in fair condition
Runway edge lights: medium intensity
RUNWAY 9  RUNWAY 27
Latitude: 42-32.575973N42-32.578848N
Longitude: 083-11.068925W083-10.278788W
Elevation: 727.0 ft.701.0 ft.
Gradient: 0.7% DOWN0.7% UP
Traffic pattern: leftleft
Runway heading: 096 magnetic, 090 true276 magnetic, 270 true
Markings: nonprecision, in good conditionnonprecision, in good condition
Visual slope indicator: 2-light PAPI on right (3.75 degrees glide path)2-light PAPI on left (3.75 degrees glide path)
Runway end identifier lights: nono
Touchdown point: yes, no lightsyes, no lights
Obstructions: 19 ft. trees, 542 ft. from runway, 18:1 slope to clear17 ft. bldg, lighted, 540 ft. from runway, 20:1 slope to clear

Airport Ownership and Management from official FAA records

Ownership: Publicly-owned
Owner: OAKLAND COUNTY
6500 HIGHLAND ROAD
WATERFORD, MI 48327
Phone (248) 288-6100
ARPT PHONE 248-666-3900
Manager: CHERYL BUSH
6500 HIGHLAND RD
WATERFORD, MI 48327
Phone 248-666-3900

Airport Operational Statistics

Aircraft based on the field: 115
Single engine airplanes: 104
Multi engine airplanes: 7
Helicopters: 3
Ultralights: 1
    
Aircraft operations: avg 82/day *
50% transient general aviation
50% local general aviation
* for 12-month period ending 31 December 2014

Additional Remarks

DEER AND BIRDS ON & INVOF ARPT.
RY 09 +3 FT BERM 316 FT FM THLD.
NO TGL OR PRACTICE TFC PATTERNS.
FOR CD CTC DETROIT APCH AT 800-499-8181.

Instrument Procedures

NOTE: All procedures below are presented as PDF files. If you need a reader for these files, you should download the free Adobe Reader.

NOT FOR NAVIGATION. Please procure official charts for flight.
FAA instrument procedures published for use from 31 January 2019 at 0901Z to 28 February 2019 at 0900Z.

 
STARs - Standard Terminal Arrivals
FOREY ONE (RNAV)   download (151KB)
OKLND ONE (RNAV)   download (132KB)
PETTE ONE (RNAV)   download (153KB)
RRALF ONE (RNAV)   download (141KB)
 
IAPs - Instrument Approach Procedures
RNAV (GPS) RWY 09   download (161KB)
 
Departure Procedures
BARII ONE (RNAV)   download (138KB)
CCOBB ONE (RNAV)   download (167KB)
CLVIN ONE (RNAV)   download (149KB)
HHOWE ONE (RNAV)   download (155KB)
KAYLN ONE (RNAV)   download (157KB)
LIDDS ONE (RNAV)   download (161KB)
MIGGY ONE (RNAV)   download (170KB)
PAVYL ONE (RNAV)   download (158KB)
SNDRS ONE (RNAV)   download (174KB)
TRMML ONE (RNAV)   download (140KB)
ZETTR ONE (RNAV)   download (176KB)
NOTE: Special Take-Off Minimums/Departure Procedures apply   download (125KB)

Other nearby airports with instrument procedures:

KDET - Coleman A Young Municipal Airport (11 nm SE)
KPTK - Oakland County International Airport (13 nm NW)
KMTC - Selfridge Air National Guard Base (16 nm E)
1D2 - Canton-Plymouth-Mettetal Airport (17 nm SW)
57D - Ray Community Airport (17 nm NE)
D98 - Romeo State Airport (18 nm NE)
Y47 - Oakland Southwest Airport (20 nm W)
 
Loc | Ops | Rwys | IFR | FBO | Links
Com | Nav | Svcs | Stats | Notes
Area around KVLL (Oakland/Troy Airport)
 
Road maps at: MapQuest Bing Google
 
Aerial photo
WARNING: Photo may not be current or correct
Aerial photo of KVLL (Oakland/Troy Airport)
Photo by Jeff Schuster
Photo taken 29-Jun-2014
looking west.

Do you have a better or more recent aerial photo of Oakland/Troy Airport that you would like to share? If so, please send us your photo.

 
Sectional chart

 
Airport distance calculator
Flying to Oakland/Troy Airport? Find the distance to fly.

From to KVLL

Sunrise and sunset
Times for 15-Feb-2019
 Local
(UTC-5)
 Zulu
(UTC)
Morning civil twilight07:0212:02
Sunrise07:3112:31
Sunset18:0323:03
Evening civil twilight18:3223:32

Current date and time
Zulu (UTC)  15-Feb-2019 19:38:35
Local (UTC-5)  15-Feb-2019 14:38:35
 
METAR
KVLL 151916Z AUTO 27015G24KT 10SM CLR M01/M11 A2974 RMK AO2 T10081106
KDET 
11nm SE 
151853Z 27018G25KT 10SM CLR M01/M09 A2971 RMK AO2 PK WND 27027/1820 SLP067 T10111094
KPTK 
13nm NW 
151853Z 26019G26KT 10SM BKN025 M03/M09 A2970 RMK AO2 PK WND 27028/1813 SLP066 T10331094
KMTC 
17nm E 
151856Z 25019G27KT 10SM FEW035 M01/M08 A2968 RMK AO2A PK WND 25028/24 SLP061 WND DATA ESTMD T10081076 $
CYQG 
19nm SE 
151900Z AUTO 26020G27KT 9SM FEW035 M01/M09 A2972 RMK SLP072
KDTW 
20nm S 
151853Z 25019G27KT 10SM SCT031 M01/M09 A2975 RMK AO2 PK WND 27028/1816 SLP079 T10111094
TAF
KDET 
11nm SE 
151720Z 1518/1618 29016G24KT P6SM BKN028 FM152300 30014KT P6SM SCT028 FM160800 33006KT P6SM SCT028 BKN035 FM161400 02005KT P6SM SCT035
KPTK 
13nm NW 
151720Z 1518/1618 28016G24KT P6SM BKN025 FM152300 29014KT P6SM SCT025 FM160800 33006KT P6SM SCT028 BKN035 FM161400 02005KT P6SM SCT035
KMTC 
17nm E 
151700Z 1517/1623 27015G25KT 9999 BKN020 620202 QNH2960INS TEMPO 1517/1521 27020G35KT 510003 BECMG 1523/1524 30012KT 9999 BKN020 620203 QNH2981INS WND 31009KT AFT 1606 BECMG 1613/1614 01009KT 9999 SCT020 QNH3000INS TXM02/1521Z TNM09/1612Z
CYQG 
19nm SE 
151738Z 1518/1618 27020G30KT P6SM BKN025 TEMPO 1518/1523 OVC020 FM152300 28012G22KT P6SM BKN020 BECMG 1601/1603 28010KT BECMG 1614/1616 36007KT RMK FCST BASED ON AUTO OBS. NXT FCST BY 160000Z
KDTW 
20nm S 
151720Z 1518/1624 27016G24KT P6SM BKN028 FM152300 29014KT P6SM SCT028 FM160800 33006KT P6SM SCT028 BKN035 FM161400 02005KT P6SM SCT035
NOTAMs
Click for the latest NOTAMs
NOTAMs are issued by the DoD/FAA and will open in a separate window not controlled by AirNav.

 

 
 

FBO, Fuel Providers, and Aircraft Ground Support

  
 Business Name 
 
 Contact 
 
 Services / Description 
 
Fuel Prices
 
Comments
  
JDS Pump-N-Go 248-288-6100
[email]
Aviation fuel, Aircraft parking (ramp or tiedown), Hangar leasing / sales

More info about JDS Pump-N-Go
Avfuel
100LL Jet A
SS $5.10 $4.70 
 Updated 11-Feb-2019
 
   write
24HRFUEL.com 248-655-1474
no information available

If you are affiliated with 24HRFUEL.com and would like to show here your services, contact info, web link, logo, and more, click here
100LL Jet A
SS $5.19 $4.09 
 Updated 11-Feb-2019
 
   2 read write
SS=Self service
Update Fuel Prices
 

Would you like to see your business listed on this page?

 If your business provides an interesting product or service to pilots, flight crews, aircraft, or users of the Oakland/Troy Airport, you should consider listing it here.  To start the listing process, click on the button below
 
Add a business
 

Other Pages about Oakland/Troy Airport

Oakland/Troy Airport Website
Page from the Michigan Airport Directory (PDF)
 
Update a link
 
Copyright © AirNav, LLC. All rights reserved. Privacy Policy  Contact